EZY86JD EGPH-LGIR

Flight info

Callsign EZY86JD
Flight time 4h 18m
Altitude 35000
Route TLA Y96 OTBUN DCT NATEB DCT GODOS DCT DODEN DCT NEGIX DCT DINKU M867 XERUM DCT BAVAX DCT RADIZ DCT EVAXI DCT DARZA DCT PINDO DCT PIKOS DCT KEA UL607 GIVIS T514 XAVIS
Aircraft A320/M-SDE2E3FGHIJ1RWXYZ/LB1

Departure

Time 2026-04-23 10:30
Airport Edinburgh Airport (EGPH)

Arrival

Time 2026-04-23 14:49
Airport Heraklion International Nikos Kazantzakis Airport (LGIR)
Time Latitude Longitude Altitude Speed Heading
2026-04-23 09:56 55.94612 -3.36627 116 ft 0 kts 89°
2026-04-23 10:13 55.94612 -3.36628 116 ft 0 kts 89°
2026-04-23 10:21 55.94611 -3.36666 112 ft 4 kts 83°
2026-04-23 10:21 55.94606 -3.36711 112 ft 4 kts 57°
2026-04-23 10:21 55.94590 -3.36733 112 ft 1 kts 359°
2026-04-23 10:24 55.94594 -3.36733 116 ft 3 kts 359°
2026-04-23 10:24 55.94630 -3.36734 115 ft 8 kts 359°
2026-04-23 10:24 55.94703 -3.36736 116 ft 11 kts 359°
2026-04-23 10:24 55.94775 -3.36766 114 ft 10 kts 340°
2026-04-23 10:25 55.94841 -3.36780 116 ft 9 kts
2026-04-23 10:25 55.94897 -3.36803 112 ft 8 kts 329°
2026-04-23 10:25 55.94927 -3.36870 113 ft 7 kts 270°
2026-04-23 10:25 55.94910 -3.36943 114 ft 7 kts 240°
2026-04-23 10:26 55.94877 -3.37042 115 ft 12 kts 239°
2026-04-23 10:26 55.94830 -3.37180 113 ft 13 kts 239°
2026-04-23 10:26 55.94788 -3.37304 112 ft 11 kts 239°
2026-04-23 10:26 55.94747 -3.37425 111 ft 16 kts 239°
2026-04-23 10:27 55.94684 -3.37611 113 ft 17 kts 239°
2026-04-23 10:27 55.94628 -3.37778 113 ft 15 kts 239°
2026-04-23 10:27 55.94579 -3.37922 115 ft 13 kts 238°
2026-04-23 10:27 55.94515 -3.38108 112 ft 20 kts 239°
2026-04-23 10:28 55.94448 -3.38307 113 ft 17 kts 239°
2026-04-23 10:28 55.94389 -3.38480 113 ft 15 kts 239°
2026-04-23 10:28 55.94338 -3.38629 113 ft 13 kts 239°
2026-04-23 10:28 55.94309 -3.38716 114 ft 12 kts 239°
2026-04-23 10:29 55.94282 -3.38835 116 ft 9 kts 283°
2026-04-23 10:29 55.94344 -3.38928 113 ft 10 kts 329°
2026-04-23 10:29 55.94398 -3.38979 114 ft 5 kts 349°
2026-04-23 10:29 55.94426 -3.38938 113 ft 9 kts 57°
2026-04-23 10:30 55.94553 -3.38567 113 ft 70 kts 58°
2026-04-23 10:30 55.94918 -3.37488 110 ft 130 kts 59°
2026-04-23 10:30 55.95454 -3.35910 372 ft 156 kts 58°
2026-04-23 10:30 55.96044 -3.34292 1044 ft 155 kts 49°
2026-04-23 10:31 55.96834 -3.32960 1532 ft 160 kts 44°
2026-04-23 10:31 55.97716 -3.31541 1704 ft 181 kts 44°
2026-04-23 10:31 55.98707 -3.29941 1857 ft 202 kts 44°
2026-04-23 10:31 55.99789 -3.28192 1994 ft 220 kts 44°
2026-04-23 10:32 56.00976 -3.26275 2145 ft 240 kts 44°
2026-04-23 10:32 56.02256 -3.24213 2392 ft 252 kts 44°
2026-04-23 10:32 56.03570 -3.22093 2828 ft 257 kts 44°
2026-04-23 10:32 56.04763 -3.19707 3236 ft 259 kts 64°
2026-04-23 10:33 56.05156 -3.16617 3654 ft 258 kts 95°
2026-04-23 10:33 56.04939 -3.13425 4098 ft 259 kts 99°
2026-04-23 10:33 56.04511 -3.10305 4555 ft 259 kts 116°
2026-04-23 10:33 56.03539 -3.07623 5021 ft 258 kts 134°
2026-04-23 10:34 56.02167 -3.05570 5478 ft 258 kts 144°
2026-04-23 10:34 56.00731 -3.03636 5918 ft 259 kts 144°
2026-04-23 10:34 55.99287 -3.01691 6338 ft 261 kts 146°
2026-04-23 10:34 55.97740 -3.00049 6914 ft 263 kts 158°
2026-04-23 10:35 55.95936 -2.99348 7611 ft 265 kts 182°
2026-04-23 10:35 55.94155 -3.00127 8275 ft 269 kts 203°
2026-04-23 10:35 55.92434 -3.01509 8974 ft 272 kts 204°
2026-04-23 10:35 55.90719 -3.02889 9658 ft 276 kts 204°
2026-04-23 10:36 55.88925 -3.04269 10356 ft 279 kts 197°
2026-04-23 10:36 55.86997 -3.04690 10883 ft 287 kts 175°
2026-04-23 10:36 55.85037 -3.03582 11015 ft 310 kts 148°
2026-04-23 10:36 55.83344 -3.01005 11206 ft 329 kts 137°
2026-04-23 10:37 55.81678 -2.98140 11726 ft 336 kts 137°
2026-04-23 10:37 55.79993 -2.95233 12338 ft 339 kts 137°
2026-04-23 10:37 55.78289 -2.92310 12958 ft 342 kts 137°
2026-04-23 10:37 55.76581 -2.89405 13563 ft 346 kts 137°
2026-04-23 10:38 55.74807 -2.86410 14160 ft 349 kts 137°
2026-04-23 10:38 55.73035 -2.83432 14679 ft 353 kts 137°
2026-04-23 10:38 55.71248 -2.80431 15189 ft 356 kts 137°
2026-04-23 10:38 55.69463 -2.77432 15666 ft 360 kts 137°
2026-04-23 10:39 55.67613 -2.74323 16162 ft 364 kts 137°
2026-04-23 10:39 55.65794 -2.71275 16655 ft 367 kts 137°
2026-04-23 10:39 55.63909 -2.68121 17164 ft 370 kts 137°
2026-04-23 10:39 55.62031 -2.64982 17669 ft 373 kts 137°
2026-04-23 10:40 55.60157 -2.61854 18155 ft 376 kts 137°
2026-04-23 10:40 55.58218 -2.58626 18647 ft 380 kts 138°
2026-04-23 10:40 55.56287 -2.55418 19090 ft 383 kts 138°
2026-04-23 10:40 55.54341 -2.52189 19526 ft 385 kts 138°
2026-04-23 10:41 55.52380 -2.48948 19947 ft 387 kts 138°
2026-04-23 10:41 55.50407 -2.45688 20375 ft 390 kts 137°
2026-04-23 10:41 55.48424 -2.42403 20813 ft 392 kts 137°
2026-04-23 10:41 55.46434 -2.39105 21233 ft 394 kts 137°
2026-04-23 10:42 55.44455 -2.35832 21623 ft 396 kts 137°
2026-04-23 10:42 55.42440 -2.32507 22034 ft 399 kts 137°
2026-04-23 10:42 55.40409 -2.29164 22428 ft 401 kts 137°
2026-04-23 10:42 55.38364 -2.25805 22818 ft 403 kts 137°
2026-04-23 10:43 55.36308 -2.22434 23201 ft 405 kts 137°
2026-04-23 10:43 55.34236 -2.19045 23559 ft 408 kts 136°
2026-04-23 10:43 55.32149 -2.15635 23889 ft 412 kts 136°
2026-04-23 10:43 55.30043 -2.12193 24218 ft 415 kts 136°
2026-04-23 10:44 55.27925 -2.08733 24514 ft 417 kts 136°
2026-04-23 10:44 55.25799 -2.05262 24848 ft 418 kts 136°
2026-04-23 10:44 55.23664 -2.01785 25172 ft 420 kts 136°
2026-04-23 10:44 55.21517 -1.98303 25472 ft 422 kts 136°
2026-04-23 10:45 55.19362 -1.94817 25766 ft 423 kts 136°
2026-04-23 10:45 55.17194 -1.91308 26055 ft 425 kts 136°
2026-04-23 10:45 55.15017 -1.87794 26336 ft 427 kts 136°
2026-04-23 10:45 55.12829 -1.84264 26640 ft 429 kts 136°
2026-04-23 10:46 55.10634 -1.80727 26921 ft 430 kts 136°
2026-04-23 10:46 55.08424 -1.77180 27198 ft 432 kts 136°
2026-04-23 10:46 55.06205 -1.73624 27474 ft 434 kts 136°
2026-04-23 10:46 55.04137 -1.69789 27739 ft 435 kts 127°
2026-04-23 10:47 55.02444 -1.65428 28002 ft 435 kts 118°
2026-04-23 10:47 55.00999 -1.60784 28296 ft 436 kts 117°
2026-04-23 10:47 54.99547 -1.56143 28619 ft 437 kts 117°
2026-04-23 10:47 54.98083 -1.51498 28887 ft 438 kts 117°
2026-04-23 10:48 54.96607 -1.46842 29151 ft 440 kts 117°
2026-04-23 10:48 54.95121 -1.42173 29403 ft 442 kts 117°
2026-04-23 10:48 54.93629 -1.37487 29644 ft 443 kts 117°
2026-04-23 10:48 54.92132 -1.32790 29881 ft 445 kts 117°
2026-04-23 10:49 54.90633 -1.28087 30087 ft 446 kts 117°
2026-04-23 10:49 54.89126 -1.23357 30332 ft 448 kts 117°
2026-04-23 10:49 54.87613 -1.18620 30610 ft 448 kts 117°
2026-04-23 10:49 54.86100 -1.13898 30878 ft 447 kts 118°
2026-04-23 10:50 54.84610 -1.09255 31172 ft 446 kts 118°
2026-04-23 10:50 54.83089 -1.04516 31629 ft 439 kts 120°
2026-04-23 10:50 54.81617 -0.99942 32218 ft 430 kts 120°
2026-04-23 10:50 54.80182 -0.95494 32649 ft 426 kts 121°
2026-04-23 10:51 54.78737 -0.91035 33003 ft 423 kts 121°
2026-04-23 10:51 54.77301 -0.86616 33313 ft 421 kts 121°
2026-04-23 10:51 54.75863 -0.82202 33611 ft 419 kts 121°
2026-04-23 10:51 54.74435 -0.77815 33918 ft 418 kts 121°
2026-04-23 10:52 54.73010 -0.73440 34176 ft 417 kts 121°
2026-04-23 10:52 54.71589 -0.69085 34444 ft 416 kts 121°
2026-04-23 10:52 54.70164 -0.64731 34696 ft 415 kts 121°
2026-04-23 10:52 54.68743 -0.60405 34900 ft 414 kts 121°
2026-04-23 10:53 54.67317 -0.56079 35079 ft 414 kts 121°
2026-04-23 10:53 54.65892 -0.51757 35246 ft 414 kts 121°
2026-04-23 10:53 54.64471 -0.47438 35408 ft 414 kts 121°
2026-04-23 10:53 54.63047 -0.43110 35537 ft 415 kts 121°
2026-04-23 10:54 54.60190 -0.34472 35560 ft 414 kts 121°
2026-04-23 10:54 54.57336 -0.25869 35559 ft 413 kts 121°
2026-04-23 10:55 54.54470 -0.17283 35557 ft 413 kts 121°
2026-04-23 10:55 54.51598 -0.08713 35557 ft 413 kts 121°
2026-04-23 10:56 54.48716 -0.00149 35556 ft 413 kts 121°
2026-04-23 10:56 54.45845 0.08389 35578 ft 411 kts 122°
2026-04-23 10:57 54.42989 0.16857 35580 ft 409 kts 122°
2026-04-23 10:57 54.40128 0.25289 35576 ft 408 kts 122°
2026-04-23 10:58 54.37269 0.33677 35573 ft 407 kts 122°
2026-04-23 10:58 54.34402 0.42052 35570 ft 406 kts 122°
2026-04-23 10:59 54.31536 0.50395 35564 ft 406 kts 122°
2026-04-23 10:59 54.28678 0.58726 35561 ft 405 kts 122°
2026-04-23 11:00 54.25817 0.67016 35565 ft 404 kts 123°
2026-04-23 11:00 54.22956 0.75262 35572 ft 403 kts 122°
2026-04-23 11:01 54.20100 0.83489 35565 ft 402 kts 122°
2026-04-23 11:01 54.17240 0.91693 35561 ft 402 kts 123°
2026-04-23 11:02 54.14396 0.99818 35557 ft 401 kts 123°
2026-04-23 11:02 54.11533 1.07986 35539 ft 401 kts 123°
2026-04-23 11:03 54.08672 1.16125 35542 ft 400 kts 123°
2026-04-23 11:03 54.05805 1.24247 35543 ft 400 kts 123°
2026-04-23 11:04 54.02936 1.32343 35540 ft 400 kts 123°
2026-04-23 11:04 54.00055 1.40435 35540 ft 400 kts 123°
2026-04-23 11:05 53.97176 1.48516 35547 ft 400 kts 123°
2026-04-23 11:05 53.94287 1.56583 35547 ft 400 kts 123°
2026-04-23 11:06 53.89951 1.68643 35539 ft 399 kts 123°
2026-04-23 11:07 53.87053 1.76667 35540 ft 399 kts 123°
2026-04-23 11:07 53.84173 1.84621 35539 ft 399 kts 124°
2026-04-23 11:08 53.81270 1.92614 35533 ft 399 kts 124°
2026-04-23 11:08 53.78362 2.00603 35533 ft 399 kts 124°
2026-04-23 11:09 53.75447 2.08575 35512 ft 399 kts 124°
2026-04-23 11:09 53.72528 2.16540 35499 ft 399 kts 124°
2026-04-23 11:10 53.69604 2.24502 35509 ft 399 kts 124°
2026-04-23 11:10 53.66667 2.32453 35510 ft 399 kts 124°
2026-04-23 11:11 53.63725 2.40382 35515 ft 399 kts 124°
2026-04-23 11:11 53.60779 2.48318 35518 ft 399 kts 124°
2026-04-23 11:12 53.57830 2.56239 35515 ft 399 kts 124°
2026-04-23 11:12 53.54872 2.64151 35509 ft 399 kts 124°
2026-04-23 11:13 53.51910 2.72049 35508 ft 400 kts 124°
2026-04-23 11:13 53.48941 2.79936 35510 ft 400 kts 124°
2026-04-23 11:14 53.45973 2.87821 35514 ft 399 kts 124°
2026-04-23 11:14 53.42994 2.95696 35502 ft 399 kts 124°
2026-04-23 11:15 53.40010 3.03546 35506 ft 400 kts 124°
2026-04-23 11:15 53.37022 3.11399 35483 ft 400 kts 124°
2026-04-23 11:16 53.34534 3.17914 35488 ft 399 kts 124°
2026-04-23 11:16 53.31533 3.25732 35488 ft 399 kts 124°
2026-04-23 11:17 53.28532 3.33533 35496 ft 399 kts 124°
2026-04-23 11:17 53.25528 3.41329 35486 ft 399 kts 125°
2026-04-23 11:18 53.22057 3.48499 35496 ft 397 kts 132°
2026-04-23 11:18 53.18445 3.55460 35505 ft 397 kts 132°
2026-04-23 11:19 53.14821 3.62428 35497 ft 397 kts 131°
2026-04-23 11:19 53.11198 3.69389 35498 ft 398 kts 131°
2026-04-23 11:20 53.07569 3.76342 35492 ft 398 kts 131°
2026-04-23 11:20 53.03933 3.83285 35492 ft 398 kts 132°
2026-04-23 11:21 53.00289 3.90214 35492 ft 398 kts 132°
2026-04-23 11:21 52.96645 3.97140 35491 ft 398 kts 132°
2026-04-23 11:22 52.92995 4.04061 35505 ft 398 kts 132°
2026-04-23 11:22 52.89343 4.10964 35494 ft 399 kts 131°
2026-04-23 11:23 52.85680 4.17857 35494 ft 399 kts 131°
2026-04-23 11:23 52.82017 4.24742 35490 ft 399 kts 131°
2026-04-23 11:24 52.78343 4.31620 35486 ft 399 kts 132°
2026-04-23 11:24 52.74663 4.38479 35489 ft 399 kts 132°
2026-04-23 11:25 52.71005 4.45293 35488 ft 399 kts 132°
2026-04-23 11:25 52.67301 4.52193 35500 ft 399 kts 132°
2026-04-23 11:26 52.63611 4.59014 35502 ft 399 kts 132°
2026-04-23 11:26 52.59915 4.65822 35498 ft 398 kts 132°
2026-04-23 11:27 52.56253 4.72575 35497 ft 398 kts 132°
2026-04-23 11:27 52.52568 4.79358 35499 ft 398 kts 132°
2026-04-23 11:28 52.48879 4.86123 35496 ft 398 kts 132°
2026-04-23 11:28 52.45182 4.92880 35495 ft 398 kts 132°
2026-04-23 11:29 52.41487 4.99613 35495 ft 398 kts 132°
2026-04-23 11:29 52.37781 5.06346 35490 ft 398 kts 132°
2026-04-23 11:30 52.34075 5.13061 35487 ft 398 kts 132°
2026-04-23 11:30 52.30365 5.19755 35474 ft 397 kts 132°
2026-04-23 11:31 52.26652 5.26448 35469 ft 397 kts 132°
2026-04-23 11:31 52.22945 5.33130 35464 ft 397 kts 132°
2026-04-23 11:32 52.19314 5.39659 35460 ft 397 kts 132°
2026-04-23 11:32 52.15588 5.46307 35464 ft 397 kts 132°
2026-04-23 11:33 52.11853 5.52951 35465 ft 398 kts 132°
2026-04-23 11:33 52.08119 5.59586 35462 ft 398 kts 132°
2026-04-23 11:34 52.04383 5.66219 35435 ft 398 kts 132°
2026-04-23 11:34 52.00647 5.72822 35447 ft 398 kts 132°
2026-04-23 11:35 51.96904 5.79434 35441 ft 397 kts 132°
2026-04-23 11:35 51.93161 5.86033 35437 ft 397 kts 132°
2026-04-23 11:36 51.89411 5.92612 35430 ft 398 kts 132°
2026-04-23 11:36 51.85650 5.99190 35429 ft 398 kts 132°
2026-04-23 11:37 51.81890 6.05764 35424 ft 398 kts 132°
2026-04-23 11:37 51.78118 6.12334 35425 ft 399 kts 132°
2026-04-23 11:38 51.74344 6.18882 35426 ft 399 kts 132°
2026-04-23 11:38 51.70584 6.25386 35427 ft 399 kts 132°
2026-04-23 11:39 51.66797 6.31928 35424 ft 399 kts 131°
2026-04-23 11:39 51.63003 6.38473 35432 ft 400 kts 132°
2026-04-23 11:40 51.59200 6.45012 35431 ft 400 kts 132°
2026-04-23 11:40 51.55384 6.51542 35433 ft 401 kts 132°
2026-04-23 11:41 51.51571 6.58060 35428 ft 401 kts 132°
2026-04-23 11:41 51.47751 6.64575 35435 ft 401 kts 132°
2026-04-23 11:42 51.43927 6.71074 35438 ft 401 kts 132°
2026-04-23 11:42 51.40101 6.77572 35414 ft 401 kts 131°
2026-04-23 11:43 51.36265 6.84070 35424 ft 401 kts 131°
2026-04-23 11:43 51.32428 6.90544 35407 ft 401 kts 132°
2026-04-23 11:44 51.28579 6.97004 35410 ft 401 kts 132°
2026-04-23 11:44 51.24704 7.03505 35409 ft 402 kts 132°
2026-04-23 11:45 51.20879 7.09920 35406 ft 402 kts 132°
2026-04-23 11:45 51.17022 7.16369 35408 ft 402 kts 131°
2026-04-23 11:46 51.13159 7.22807 35397 ft 402 kts 131°
2026-04-23 11:46 51.09282 7.29232 35400 ft 403 kts 131°
2026-04-23 11:47 51.05400 7.35655 35397 ft 402 kts 131°
2026-04-23 11:47 51.01528 7.42064 35394 ft 402 kts 131°
2026-04-23 11:48 50.97648 7.48472 35391 ft 402 kts 132°
2026-04-23 11:48 50.93757 7.54863 35382 ft 402 kts 132°
2026-04-23 11:49 50.89863 7.61241 35369 ft 403 kts 131°
2026-04-23 11:49 50.85961 7.67629 35368 ft 404 kts 131°
2026-04-23 11:50 50.82051 7.74013 35367 ft 404 kts 131°
2026-04-23 11:50 50.78136 7.80389 35371 ft 405 kts 131°
2026-04-23 11:51 50.74210 7.86760 35373 ft 405 kts 131°
2026-04-23 11:51 50.70272 7.93123 35377 ft 405 kts 131°
2026-04-23 11:52 50.66336 7.99480 35379 ft 406 kts 131°
2026-04-23 11:52 50.62389 8.05843 35367 ft 406 kts 131°
2026-04-23 11:53 50.58637 8.12454 35379 ft 404 kts 126°
2026-04-23 11:53 50.55133 8.19379 35379 ft 404 kts 126°
2026-04-23 11:54 50.51618 8.26276 35379 ft 405 kts 126°
2026-04-23 11:54 50.48093 8.33176 35384 ft 405 kts 126°
2026-04-23 11:55 50.44565 8.40064 35380 ft 405 kts 126°
2026-04-23 11:55 50.41031 8.46950 35374 ft 405 kts 126°
2026-04-23 11:56 50.37481 8.53817 35369 ft 406 kts 127°
2026-04-23 11:56 50.33702 8.60395 35370 ft 407 kts 130°
2026-04-23 11:57 50.29774 8.66783 35371 ft 407 kts 130°
2026-04-23 11:57 50.25865 8.73179 35361 ft 407 kts 130°
2026-04-23 11:58 50.21992 8.79627 35360 ft 407 kts 129°
2026-04-23 11:58 50.18126 8.86077 35359 ft 407 kts 130°
2026-04-23 11:59 50.14278 8.92473 35360 ft 407 kts 130°
2026-04-23 11:59 50.10366 8.98935 35361 ft 407 kts 130°
2026-04-23 12:00 50.06512 9.05293 35372 ft 407 kts 130°
2026-04-23 12:00 50.02621 9.11701 35376 ft 407 kts 130°
2026-04-23 12:01 49.98728 9.18094 35369 ft 408 kts 129°
2026-04-23 12:01 49.95453 9.23454 35364 ft 408 kts 129°
2026-04-23 12:02 49.90911 9.30874 35357 ft 409 kts 129°
2026-04-23 12:02 49.87647 9.36189 35356 ft 409 kts 130°
2026-04-23 12:03 49.83726 9.42554 35356 ft 409 kts 130°
2026-04-23 12:03 49.79765 9.48964 35369 ft 409 kts 130°
2026-04-23 12:04 49.75863 9.55279 35374 ft 409 kts 129°
2026-04-23 12:04 49.71925 9.61646 35358 ft 410 kts 129°
2026-04-23 12:05 49.67976 9.68007 35356 ft 410 kts 129°
2026-04-23 12:05 49.64016 9.74354 35355 ft 410 kts 129°
2026-04-23 12:06 49.60064 9.80688 35352 ft 410 kts 129°
2026-04-23 12:06 49.54119 9.90181 35361 ft 410 kts 130°
2026-04-23 12:07 49.50152 9.96495 35359 ft 411 kts 129°
2026-04-23 12:07 49.46166 10.02816 35353 ft 411 kts 129°
2026-04-23 12:08 49.42174 10.09120 35350 ft 412 kts 129°
2026-04-23 12:08 49.38178 10.15419 35351 ft 412 kts 129°
2026-04-23 12:09 49.34185 10.21725 35359 ft 412 kts 129°
2026-04-23 12:09 49.30189 10.28019 35372 ft 412 kts 129°
2026-04-23 12:10 49.26172 10.34308 35360 ft 413 kts 129°
2026-04-23 12:10 49.21763 10.40016 35380 ft 422 kts 144°
2026-04-23 12:11 49.16707 10.44608 35374 ft 423 kts 144°
2026-04-23 12:11 49.11660 10.49204 35370 ft 423 kts 144°
2026-04-23 12:12 49.06603 10.53802 35378 ft 423 kts 144°
2026-04-23 12:12 49.01538 10.58389 35392 ft 423 kts 144°
2026-04-23 12:13 48.96478 10.62960 35383 ft 423 kts 143°
2026-04-23 12:13 48.91408 10.67521 35362 ft 424 kts 144°
2026-04-23 12:14 48.86329 10.72094 35359 ft 425 kts 143°
2026-04-23 12:14 48.81364 10.76891 35349 ft 419 kts 135°
2026-04-23 12:15 48.77371 10.83086 35345 ft 412 kts 127°
2026-04-23 12:15 48.73527 10.89534 35323 ft 412 kts 127°
2026-04-23 12:16 48.69644 10.96012 35333 ft 412 kts 127°
2026-04-23 12:16 48.65793 11.02450 35320 ft 413 kts 127°
2026-04-23 12:17 48.61938 11.08892 35314 ft 413 kts 127°
2026-04-23 12:17 48.58068 11.15327 35313 ft 414 kts 127°
2026-04-23 12:18 48.54189 11.21749 35310 ft 414 kts 127°
2026-04-23 12:18 48.50330 11.28129 35317 ft 414 kts 127°
2026-04-23 12:19 48.46438 11.34547 35322 ft 415 kts 127°
2026-04-23 12:19 48.42535 11.40970 35318 ft 416 kts 127°
2026-04-23 12:20 48.38623 11.47395 35316 ft 417 kts 127°
2026-04-23 12:20 48.34700 11.53809 35317 ft 417 kts 127°
2026-04-23 12:21 48.30767 11.60222 35320 ft 417 kts 127°
2026-04-23 12:21 48.26834 11.66630 35337 ft 418 kts 127°
2026-04-23 12:22 48.22693 11.72813 35326 ft 422 kts 131°
2026-04-23 12:22 48.18307 11.78698 35320 ft 424 kts 132°
2026-04-23 12:23 48.13904 11.84554 35318 ft 423 kts 132°
2026-04-23 12:23 48.09549 11.90480 35317 ft 423 kts 131°
2026-04-23 12:24 48.05221 11.96426 35313 ft 423 kts 131°
2026-04-23 12:24 48.00875 12.02376 35326 ft 424 kts 131°
2026-04-23 12:25 47.96506 12.08317 35322 ft 425 kts 131°
2026-04-23 12:25 47.92127 12.14239 35322 ft 425 kts 131°
2026-04-23 12:26 47.87738 12.20163 35315 ft 425 kts 131°
2026-04-23 12:26 47.83354 12.26080 35319 ft 425 kts 131°
2026-04-23 12:27 47.78996 12.31951 35307 ft 425 kts 131°
2026-04-23 12:27 47.74583 12.37890 35312 ft 425 kts 132°
2026-04-23 12:28 47.70210 12.43733 35309 ft 426 kts 132°
2026-04-23 12:28 47.65809 12.49602 35311 ft 426 kts 132°
2026-04-23 12:29 47.61380 12.55452 35304 ft 427 kts 133°
2026-04-23 12:29 47.56755 12.61003 35314 ft 429 kts 136°
2026-04-23 12:30 47.52022 12.66408 35312 ft 430 kts 136°
2026-04-23 12:30 47.47300 12.71845 35302 ft 431 kts 135°
2026-04-23 12:31 47.42597 12.77336 35292 ft 431 kts 135°
2026-04-23 12:31 47.37897 12.82840 35291 ft 432 kts 135°
2026-04-23 12:32 47.33181 12.88342 35283 ft 432 kts 135°
2026-04-23 12:32 47.28465 12.93816 35291 ft 432 kts 135°
2026-04-23 12:33 47.23738 12.99284 35283 ft 433 kts 136°
2026-04-23 12:33 47.19000 13.04752 35254 ft 433 kts 136°
2026-04-23 12:34 47.14251 13.10232 35251 ft 434 kts 136°
2026-04-23 12:34 47.09501 13.15703 35230 ft 434 kts 135°
2026-04-23 12:35 47.04747 13.21162 35235 ft 434 kts 136°
2026-04-23 12:35 46.99987 13.26607 35249 ft 434 kts 136°
2026-04-23 12:36 46.95229 13.32036 35236 ft 433 kts 136°
2026-04-23 12:36 46.90463 13.37454 35216 ft 434 kts 136°
2026-04-23 12:37 46.85697 13.42867 35217 ft 434 kts 136°
2026-04-23 12:37 46.80960 13.48239 35203 ft 434 kts 136°
2026-04-23 12:38 46.76164 13.53688 35238 ft 434 kts 136°
2026-04-23 12:38 46.71495 13.59237 35211 ft 433 kts 135°
2026-04-23 12:39 46.66857 13.64852 35199 ft 434 kts 135°
2026-04-23 12:39 46.62236 13.70404 35188 ft 434 kts 135°
2026-04-23 12:40 46.57557 13.75947 35187 ft 434 kts 135°
2026-04-23 12:40 46.52869 13.81477 35182 ft 434 kts 135°
2026-04-23 12:41 46.48195 13.86997 35191 ft 433 kts 135°
2026-04-23 12:41 46.43509 13.92515 35187 ft 434 kts 135°
2026-04-23 12:42 46.38817 13.98032 35176 ft 435 kts 135°
2026-04-23 12:42 46.34116 14.03540 35177 ft 435 kts 136°
2026-04-23 12:43 46.29418 14.09051 35160 ft 435 kts 135°
2026-04-23 12:43 46.24714 14.14551 35172 ft 435 kts 136°
2026-04-23 12:44 46.19998 14.20042 35157 ft 436 kts 136°
2026-04-23 12:44 46.15272 14.25530 35143 ft 436 kts 136°
2026-04-23 12:45 46.10539 14.31010 35145 ft 437 kts 136°
2026-04-23 12:45 46.05806 14.36496 35162 ft 437 kts 136°
2026-04-23 12:46 46.01075 14.41972 35180 ft 436 kts 136°
2026-04-23 12:46 45.96366 14.47392 35176 ft 437 kts 136°
2026-04-23 12:47 45.91619 14.52848 35175 ft 437 kts 136°
2026-04-23 12:47 45.86871 14.58297 35182 ft 437 kts 136°
2026-04-23 12:48 45.82121 14.63726 35177 ft 437 kts 136°
2026-04-23 12:48 45.78133 14.68279 35177 ft 437 kts 136°
2026-04-23 12:49 45.73410 14.73658 35196 ft 437 kts 136°
2026-04-23 12:49 45.68648 14.79067 35185 ft 437 kts 137°
2026-04-23 12:50 45.63880 14.84468 35181 ft 437 kts 136°
2026-04-23 12:50 45.59115 14.89864 35180 ft 437 kts 136°
2026-04-23 12:51 45.54349 14.95252 35182 ft 437 kts 137°
2026-04-23 12:51 45.49584 15.00622 35199 ft 437 kts 137°
2026-04-23 12:52 45.45013 15.06270 35187 ft 433 kts 132°
2026-04-23 12:52 45.40688 15.12239 35184 ft 433 kts 131°
2026-04-23 12:53 45.36358 15.18190 35181 ft 433 kts 131°
2026-04-23 12:53 45.31950 15.24040 35180 ft 434 kts 132°
2026-04-23 12:54 45.27502 15.29846 35185 ft 434 kts 132°
2026-04-23 12:54 45.23061 15.35658 35187 ft 434 kts 132°
2026-04-23 12:55 45.18637 15.41464 35185 ft 433 kts 132°
2026-04-23 12:55 45.14215 15.47268 35184 ft 434 kts 132°
2026-04-23 12:56 45.09786 15.53063 35212 ft 433 kts 132°
2026-04-23 12:56 45.05349 15.58842 35205 ft 433 kts 132°
2026-04-23 12:57 45.00914 15.64600 35201 ft 433 kts 132°
2026-04-23 12:57 44.96478 15.70359 35193 ft 433 kts 132°
2026-04-23 12:58 44.92043 15.76097 35192 ft 433 kts 132°
2026-04-23 12:58 44.87603 15.81833 35196 ft 433 kts 132°
2026-04-23 12:59 44.83166 15.87560 35205 ft 433 kts 132°
2026-04-23 12:59 44.78722 15.93278 35193 ft 432 kts 132°
2026-04-23 13:00 44.74277 15.98982 35190 ft 432 kts 132°
2026-04-23 13:00 44.69831 16.04677 35177 ft 432 kts 132°
2026-04-23 13:01 44.65382 16.10370 35185 ft 432 kts 133°
2026-04-23 13:01 44.60934 16.16047 35183 ft 432 kts 132°
2026-04-23 13:02 44.56475 16.21716 35180 ft 433 kts 132°
2026-04-23 13:02 44.52014 16.27373 35178 ft 433 kts 132°
2026-04-23 13:03 44.47584 16.32985 35174 ft 432 kts 132°
2026-04-23 13:03 44.43127 16.38621 35187 ft 432 kts 132°
2026-04-23 13:04 44.38671 16.44244 35169 ft 431 kts 132°
2026-04-23 13:04 44.34213 16.49850 35170 ft 431 kts 132°
2026-04-23 13:05 44.29764 16.55439 35168 ft 430 kts 133°
2026-04-23 13:05 44.25316 16.61019 35186 ft 430 kts 132°
2026-04-23 13:06 44.18650 16.69355 35171 ft 429 kts 133°
2026-04-23 13:07 44.14199 16.74896 35151 ft 428 kts 133°
2026-04-23 13:07 44.09766 16.80415 35158 ft 427 kts 133°
2026-04-23 13:08 44.05341 16.85910 35164 ft 426 kts 133°
2026-04-23 13:08 44.00923 16.91382 35172 ft 425 kts 133°
2026-04-23 13:09 43.96508 16.96845 35159 ft 425 kts 133°
2026-04-23 13:09 43.92093 17.02294 35143 ft 425 kts 133°
2026-04-23 13:10 43.87678 17.07723 35139 ft 424 kts 133°
2026-04-23 13:10 43.83273 17.13138 35171 ft 423 kts 133°
2026-04-23 13:11 43.78874 17.18534 35152 ft 422 kts 133°
2026-04-23 13:11 43.74467 17.23911 35139 ft 422 kts 133°
2026-04-23 13:12 43.70069 17.29282 35128 ft 421 kts 133°
2026-04-23 13:12 43.65676 17.34649 35115 ft 421 kts 133°
2026-04-23 13:13 43.61290 17.39994 35142 ft 420 kts 133°
2026-04-23 13:13 43.56902 17.45317 35136 ft 419 kts 133°
2026-04-23 13:14 43.52523 17.50615 35125 ft 419 kts 133°
2026-04-23 13:14 43.48149 17.55906 35122 ft 418 kts 133°
2026-04-23 13:15 43.43774 17.61183 35101 ft 418 kts 133°
2026-04-23 13:15 43.39397 17.66450 35094 ft 418 kts 133°
2026-04-23 13:16 43.35015 17.71716 35083 ft 418 kts 133°
2026-04-23 13:16 43.30635 17.76968 35098 ft 418 kts 133°
2026-04-23 13:17 43.26283 17.82186 35082 ft 418 kts 133°
2026-04-23 13:17 43.21893 17.87426 35077 ft 418 kts 133°
2026-04-23 13:18 43.17501 17.92660 35091 ft 418 kts 133°
2026-04-23 13:18 43.13116 17.97877 35087 ft 417 kts 133°
2026-04-23 13:19 43.08729 18.03088 35077 ft 417 kts 133°
2026-04-23 13:19 43.04344 18.08284 35070 ft 417 kts 133°
2026-04-23 13:20 42.99954 18.13478 35057 ft 417 kts 133°
2026-04-23 13:20 42.95567 18.18660 35053 ft 417 kts 133°
2026-04-23 13:21 42.91174 18.23828 35062 ft 417 kts 133°
2026-04-23 13:21 42.86779 18.28993 35055 ft 417 kts 133°
2026-04-23 13:22 42.82392 18.34141 35053 ft 416 kts 134°
2026-04-23 13:22 42.77994 18.39280 35050 ft 416 kts 134°
2026-04-23 13:23 42.73609 18.44413 35064 ft 416 kts 133°
2026-04-23 13:23 42.69228 18.49544 35071 ft 416 kts 133°
2026-04-23 13:24 42.64829 18.54669 35064 ft 416 kts 133°
2026-04-23 13:24 42.60434 18.59774 35074 ft 416 kts 133°
2026-04-23 13:25 42.56039 18.64870 35077 ft 416 kts 134°
2026-04-23 13:25 42.51644 18.69961 35075 ft 415 kts 133°
2026-04-23 13:26 42.47278 18.75006 35077 ft 415 kts 134°
2026-04-23 13:26 42.42884 18.80080 35078 ft 415 kts 133°
2026-04-23 13:27 42.38482 18.85141 35076 ft 415 kts 133°
2026-04-23 13:27 42.34078 18.90188 35053 ft 415 kts 134°
2026-04-23 13:28 42.29672 18.95244 35049 ft 415 kts 133°
2026-04-23 13:28 42.25268 19.00287 35043 ft 415 kts 134°
2026-04-23 13:29 42.20863 19.05326 35060 ft 416 kts 133°
2026-04-23 13:29 42.16446 19.10361 35047 ft 416 kts 134°
2026-04-23 13:30 42.12018 19.15392 35048 ft 417 kts 134°
2026-04-23 13:30 42.07585 19.20428 35045 ft 417 kts 134°
2026-04-23 13:31 42.03145 19.25465 35042 ft 417 kts 134°
2026-04-23 13:31 41.98709 19.30495 35035 ft 417 kts 134°
2026-04-23 13:32 41.94258 19.35524 35033 ft 419 kts 134°
2026-04-23 13:32 41.89788 19.40560 35026 ft 420 kts 134°
2026-04-23 13:33 41.85302 19.45600 35024 ft 421 kts 134°
2026-04-23 13:33 41.80812 19.50648 35025 ft 422 kts 135°
2026-04-23 13:34 41.76306 19.55706 35023 ft 423 kts 135°
2026-04-23 13:34 41.72550 19.59915 35029 ft 423 kts 135°
2026-04-23 13:35 41.68017 19.64973 35017 ft 425 kts 135°
2026-04-23 13:35 41.62734 19.70867 35007 ft 426 kts 135°
2026-04-23 13:36 41.58914 19.75117 35007 ft 426 kts 135°
2026-04-23 13:36 41.54349 19.80189 35025 ft 427 kts 136°
2026-04-23 13:37 41.49776 19.85265 34996 ft 428 kts 136°
2026-04-23 13:37 41.45184 19.90342 34982 ft 429 kts 137°
2026-04-23 13:38 41.40579 19.95422 34980 ft 431 kts 137°
2026-04-23 13:38 41.35990 20.00480 34981 ft 431 kts 137°
2026-04-23 13:39 41.31365 20.05568 34979 ft 432 kts 137°
2026-04-23 13:39 41.26736 20.10653 34975 ft 432 kts 137°
2026-04-23 13:40 41.22099 20.15736 34994 ft 432 kts 137°
2026-04-23 13:40 41.17455 20.20825 34980 ft 434 kts 138°
2026-04-23 13:41 41.12791 20.25925 34973 ft 435 kts 138°
2026-04-23 13:41 41.08106 20.31031 34975 ft 436 kts 138°
2026-04-23 13:42 41.03405 20.36138 34976 ft 437 kts 138°
2026-04-23 13:42 40.98694 20.41237 34977 ft 438 kts 138°
2026-04-23 13:43 40.93984 20.46342 34982 ft 438 kts 138°
2026-04-23 13:43 40.89275 20.51441 34990 ft 438 kts 138°
2026-04-23 13:44 40.84553 20.56539 34988 ft 438 kts 139°
2026-04-23 13:44 40.79834 20.61631 34984 ft 438 kts 139°
2026-04-23 13:45 40.75110 20.66708 34984 ft 438 kts 139°
2026-04-23 13:45 40.70387 20.71775 34979 ft 438 kts 139°
2026-04-23 13:46 40.65648 20.76850 34974 ft 440 kts 139°
2026-04-23 13:46 40.60890 20.81939 34978 ft 441 kts 140°
2026-04-23 13:47 40.56118 20.87031 34970 ft 442 kts 140°
2026-04-23 13:47 40.51329 20.92128 34977 ft 443 kts 140°
2026-04-23 13:48 40.46544 20.97249 34980 ft 444 kts 139°
2026-04-23 13:48 40.41888 21.02590 34974 ft 445 kts 138°
2026-04-23 13:49 40.37277 21.08030 34971 ft 447 kts 138°
2026-04-23 13:49 40.32622 21.13445 34972 ft 448 kts 138°
2026-04-23 13:50 40.27926 21.18823 34992 ft 449 kts 139°
2026-04-23 13:50 40.23214 21.24210 34995 ft 449 kts 139°
2026-04-23 13:51 40.18543 21.29549 34988 ft 449 kts 139°
2026-04-23 13:51 40.13829 21.34940 34985 ft 451 kts 140°
2026-04-23 13:52 40.09096 21.40334 34980 ft 452 kts 140°
2026-04-23 13:52 40.04347 21.45726 34984 ft 453 kts 140°
2026-04-23 13:53 39.99574 21.51138 34987 ft 453 kts 140°
2026-04-23 13:53 39.94853 21.56502 35000 ft 453 kts 139°
2026-04-23 13:54 39.90188 21.62036 34992 ft 454 kts 138°
2026-04-23 13:54 39.85563 21.67659 34994 ft 455 kts 138°
2026-04-23 13:55 39.80911 21.73257 34997 ft 456 kts 139°
2026-04-23 13:55 39.76225 21.78829 34999 ft 456 kts 139°
2026-04-23 13:56 39.71529 21.84389 35003 ft 457 kts 139°
2026-04-23 13:56 39.66826 21.89964 35005 ft 458 kts 139°
2026-04-23 13:57 39.62106 21.95540 34998 ft 459 kts 140°
2026-04-23 13:57 39.57377 22.01134 35001 ft 461 kts 140°
2026-04-23 13:58 39.52638 22.06734 35004 ft 462 kts 140°
2026-04-23 13:58 39.47883 22.12324 35006 ft 462 kts 140°
2026-04-23 13:59 39.43146 22.17882 35005 ft 463 kts 140°
2026-04-23 13:59 39.38340 22.23509 35007 ft 463 kts 140°
2026-04-23 14:00 39.34366 22.28160 34998 ft 464 kts 141°
2026-04-23 14:00 39.28798 22.34664 35009 ft 465 kts 141°
2026-04-23 14:01 39.23999 22.40260 35013 ft 466 kts 141°
2026-04-23 14:01 39.19189 22.45859 35008 ft 466 kts 141°
2026-04-23 14:02 39.14372 22.51451 35011 ft 466 kts 141°
2026-04-23 14:02 39.09550 22.57041 34997 ft 466 kts 141°
2026-04-23 14:03 39.04723 22.62625 35005 ft 467 kts 142°
2026-04-23 14:03 38.99890 22.68200 35011 ft 467 kts 142°
2026-04-23 14:04 38.95043 22.73773 35024 ft 468 kts 142°
2026-04-23 14:04 38.90197 22.79345 35017 ft 467 kts 142°
2026-04-23 14:05 38.85347 22.84911 35031 ft 468 kts 142°
2026-04-23 14:05 38.80501 22.90466 35012 ft 468 kts 143°
2026-04-23 14:06 38.75641 22.96026 35018 ft 468 kts 143°
2026-04-23 14:06 38.70778 23.01574 35028 ft 469 kts 143°
2026-04-23 14:07 38.65897 23.07128 35032 ft 469 kts 143°
2026-04-23 14:07 38.58573 23.15434 35021 ft 470 kts 144°
2026-04-23 14:08 38.53682 23.20985 35025 ft 470 kts 143°
2026-04-23 14:08 38.48813 23.26505 35037 ft 473 kts 144°
2026-04-23 14:09 38.43854 23.32109 35030 ft 472 kts 144°
2026-04-23 14:09 38.38961 23.37620 35037 ft 473 kts 144°
2026-04-23 14:10 38.34027 23.43161 35018 ft 473 kts 144°
2026-04-23 14:10 38.29100 23.48692 35024 ft 472 kts 145°
2026-04-23 14:11 38.24171 23.54221 35027 ft 472 kts 145°
2026-04-23 14:11 38.19242 23.59739 34999 ft 472 kts 145°
2026-04-23 14:12 38.14306 23.65252 34997 ft 472 kts 145°
2026-04-23 14:12 38.09371 23.70746 34994 ft 472 kts 145°
2026-04-23 14:13 38.04436 23.76233 35006 ft 472 kts 146°
2026-04-23 14:13 37.99494 23.81711 35013 ft 472 kts 146°
2026-04-23 14:14 37.94555 23.87189 34988 ft 472 kts 146°
2026-04-23 14:14 37.89607 23.92666 35001 ft 473 kts 146°
2026-04-23 14:15 37.84646 23.98138 35008 ft 473 kts 146°
2026-04-23 14:15 37.79687 24.03592 35012 ft 473 kts 146°
2026-04-23 14:16 37.74726 24.09052 35005 ft 473 kts 146°
2026-04-23 14:16 37.69761 24.14500 35001 ft 472 kts 147°
2026-04-23 14:17 37.64798 24.19928 34995 ft 473 kts 147°
2026-04-23 14:17 37.59833 24.25366 35006 ft 472 kts 147°
2026-04-23 14:18 37.54787 24.30597 35003 ft 464 kts 155°
2026-04-23 14:18 37.49346 24.34891 35001 ft 461 kts 156°
2026-04-23 14:19 37.43945 24.39138 34983 ft 461 kts 156°
2026-04-23 14:19 37.38510 24.43402 34968 ft 460 kts 156°
2026-04-23 14:20 37.33081 24.47655 34978 ft 460 kts 156°
2026-04-23 14:20 37.27651 24.51899 34979 ft 460 kts 156°
2026-04-23 14:21 37.22225 24.56132 34986 ft 459 kts 157°
2026-04-23 14:21 37.16792 24.60365 34982 ft 459 kts 156°
2026-04-23 14:22 37.11367 24.64590 34955 ft 459 kts 156°
2026-04-23 14:22 37.05941 24.68797 34962 ft 459 kts 157°
2026-04-23 14:23 37.01425 24.72292 34845 ft 458 kts 157°
2026-04-23 14:23 36.98729 24.74383 34598 ft 454 kts 157°
2026-04-23 14:23 36.96051 24.76461 34352 ft 452 kts 157°
2026-04-23 14:24 36.93382 24.78526 34124 ft 450 kts 157°
2026-04-23 14:24 36.90733 24.80572 33814 ft 446 kts 157°
2026-04-23 14:24 36.88099 24.82611 33273 ft 444 kts 157°
2026-04-23 14:24 36.85491 24.84634 32779 ft 439 kts 157°
2026-04-23 14:25 36.82904 24.86640 32283 ft 436 kts 157°
2026-04-23 14:25 36.80332 24.88629 31800 ft 434 kts 157°
2026-04-23 14:25 36.77776 24.90604 31309 ft 431 kts 156°
2026-04-23 14:25 36.75234 24.92565 30848 ft 429 kts 157°
2026-04-23 14:26 36.72705 24.94513 30379 ft 426 kts 156°
2026-04-23 14:26 36.70185 24.96453 29897 ft 424 kts 156°
2026-04-23 14:26 36.67691 24.98370 29428 ft 419 kts 156°
2026-04-23 14:26 36.65220 25.00267 28995 ft 415 kts 157°
2026-04-23 14:27 36.62780 25.02139 28579 ft 410 kts 156°
2026-04-23 14:27 36.60367 25.03984 28126 ft 405 kts 156°
2026-04-23 14:27 36.57981 25.05811 27730 ft 400 kts 156°
2026-04-23 14:27 36.55618 25.07622 27312 ft 397 kts 156°
2026-04-23 14:28 36.53279 25.09410 26883 ft 394 kts 156°
2026-04-23 14:28 36.50951 25.11186 26457 ft 391 kts 156°
2026-04-23 14:28 36.48640 25.12945 26027 ft 389 kts 156°
2026-04-23 14:28 36.46337 25.14694 25582 ft 387 kts 156°
2026-04-23 14:29 36.44051 25.16430 25140 ft 385 kts 156°
2026-04-23 14:29 36.41767 25.18169 24683 ft 384 kts 156°
2026-04-23 14:29 36.39490 25.19903 24232 ft 383 kts 156°
2026-04-23 14:29 36.37221 25.21633 23773 ft 383 kts 156°
2026-04-23 14:30 36.34951 25.23360 23278 ft 383 kts 156°
2026-04-23 14:30 36.32687 25.25082 22811 ft 380 kts 156°
2026-04-23 14:30 36.30439 25.26792 22362 ft 379 kts 156°
2026-04-23 14:30 36.28183 25.28503 21921 ft 380 kts 156°
2026-04-23 14:31 36.25932 25.30205 21485 ft 379 kts 156°
2026-04-23 14:31 36.23685 25.31904 21053 ft 377 kts 156°
2026-04-23 14:31 36.21451 25.33595 20611 ft 375 kts 156°
2026-04-23 14:31 36.19228 25.35280 20183 ft 373 kts 156°
2026-04-23 14:32 36.17016 25.36954 19759 ft 372 kts 156°
2026-04-23 14:32 36.14813 25.38617 19330 ft 370 kts 156°
2026-04-23 14:32 36.12599 25.40223 18903 ft 365 kts 161°
2026-04-23 14:32 36.10271 25.41345 18493 ft 356 kts 170°
2026-04-23 14:33 36.07918 25.42285 18061 ft 354 kts 170°
2026-04-23 14:33 36.05584 25.43219 17642 ft 351 kts 169°
2026-04-23 14:33 36.03272 25.44151 17259 ft 348 kts 169°
2026-04-23 14:33 36.00974 25.45080 16864 ft 346 kts 169°
2026-04-23 14:34 35.98694 25.45999 16477 ft 344 kts 169°
2026-04-23 14:34 35.96425 25.46912 16094 ft 342 kts 169°
2026-04-23 14:34 35.94169 25.47819 15721 ft 340 kts 169°
2026-04-23 14:34 35.91923 25.48723 15347 ft 339 kts 169°
2026-04-23 14:35 35.89685 25.49620 14970 ft 338 kts 169°
2026-04-23 14:35 35.87454 25.50516 14589 ft 337 kts 169°
2026-04-23 14:35 35.85261 25.51397 14234 ft 336 kts 169°
2026-04-23 14:35 35.83043 25.52287 13864 ft 335 kts 169°
2026-04-23 14:36 35.80834 25.53173 13451 ft 334 kts 169°
2026-04-23 14:36 35.78662 25.54046 13083 ft 322 kts 169°
2026-04-23 14:36 35.76547 25.54892 12727 ft 319 kts 169°
2026-04-23 14:36 35.74430 25.55732 12362 ft 321 kts 169°
2026-04-23 14:37 35.72302 25.56576 11981 ft 322 kts 169°
2026-04-23 14:37 35.70177 25.57477 11594 ft 326 kts 162°
2026-04-23 14:37 35.68205 25.58919 11198 ft 335 kts 147°
2026-04-23 14:37 35.66389 25.60730 10783 ft 336 kts 146°
2026-04-23 14:38 35.64571 25.62537 10371 ft 336 kts 147°
2026-04-23 14:38 35.62748 25.64335 9952 ft 336 kts 147°
2026-04-23 14:38 35.60776 25.65688 9735 ft 313 kts 171°
2026-04-23 14:38 35.58715 25.65889 9528 ft 287 kts 197°
2026-04-23 14:39 35.56916 25.65071 9156 ft 269 kts 220°
2026-04-23 14:39 35.55607 25.63523 8759 ft 258 kts 240°
2026-04-23 14:39 35.54887 25.61541 8341 ft 253 kts 259°
2026-04-23 14:39 35.54665 25.59427 8023 ft 248 kts 262°
2026-04-23 14:40 35.54259 25.57391 7724 ft 244 kts 252°
2026-04-23 14:40 35.53541 25.55515 7437 ft 242 kts 241°
2026-04-23 14:40 35.52638 25.53791 7150 ft 239 kts 240°
2026-04-23 14:40 35.51738 25.52071 6846 ft 239 kts 240°
2026-04-23 14:41 35.50838 25.50346 6558 ft 240 kts 240°
2026-04-23 14:41 35.49938 25.48620 6258 ft 240 kts 239°
2026-04-23 14:41 35.49031 25.46877 5952 ft 243 kts 239°
2026-04-23 14:41 35.48118 25.45123 5646 ft 244 kts 239°
2026-04-23 14:42 35.47198 25.43365 5347 ft 247 kts 239°
2026-04-23 14:42 35.46155 25.41709 5184 ft 244 kts 223°
2026-04-23 14:42 35.44693 25.40739 5105 ft 238 kts 198°
2026-04-23 14:42 35.43065 25.40655 5002 ft 235 kts 172°
2026-04-23 14:43 35.41570 25.41408 4889 ft 231 kts 154°
2026-04-23 14:43 35.40197 25.42363 4768 ft 222 kts 154°
2026-04-23 14:43 35.38899 25.43260 4664 ft 207 kts 154°
2026-04-23 14:43 35.37609 25.43887 4541 ft 194 kts 178°
2026-04-23 14:44 35.36327 25.43638 4449 ft 185 kts 209°
2026-04-23 14:44 35.35366 25.42638 4166 ft 182 kts 239°
2026-04-23 14:44 35.34808 25.41250 3918 ft 183 kts 246°
2026-04-23 14:44 35.34272 25.39839 3657 ft 182 kts 247°
2026-04-23 14:45 35.33738 25.38444 3412 ft 181 kts 247°
2026-04-23 14:45 35.33201 25.37045 3152 ft 183 kts 246°
2026-04-23 14:45 35.32815 25.35570 2893 ft 182 kts 264°
2026-04-23 14:45 35.32855 25.34029 2670 ft 182 kts 276°
2026-04-23 14:46 35.32969 25.32484 2429 ft 183 kts 277°
2026-04-23 14:46 35.33078 25.30949 2196 ft 184 kts 277°
2026-04-23 14:46 35.33188 25.29384 1964 ft 179 kts 277°
2026-04-23 14:46 35.33289 25.27896 1712 ft 170 kts 278°
2026-04-23 14:47 35.33380 25.26541 1450 ft 156 kts 278°
2026-04-23 14:47 35.33469 25.25254 1218 ft 149 kts 278°
2026-04-23 14:47 35.33558 25.23990 999 ft 149 kts 278°
2026-04-23 14:47 35.33647 25.22724 776 ft 148 kts 277°
2026-04-23 14:48 35.33734 25.21477 549 ft 147 kts 276°
2026-04-23 14:48 35.33813 25.20247 337 ft 143 kts 277°
2026-04-23 14:48 35.33905 25.19028 165 ft 144 kts 277°
2026-04-23 14:48 35.33987 25.17876 98 ft 118 kts 275°
2026-04-23 14:49 35.34038 25.17119 81 ft 53 kts 275°
2026-04-23 14:49 35.34052 25.16890 70 ft 16 kts 274°
2026-04-23 14:49 35.34003 25.16891 65 ft 9 kts 126°
2026-04-23 14:49 35.33973 25.16944 68 ft 6 kts 124°
2026-04-23 14:50 35.33955 25.16981 75 ft 4 kts 113°
2026-04-23 14:50 35.33946 25.17023 70 ft 8 kts 102°
2026-04-23 14:50 35.33940 25.17078 75 ft 4 kts 96°
2026-04-23 14:50 35.33938 25.17113 78 ft 5 kts 94°
2026-04-23 14:51 35.33935 25.17172 80 ft 9 kts 92°
2026-04-23 14:51 35.33932 25.17229 81 ft 4 kts 95°
2026-04-23 14:51 35.33930 25.17253 82 ft 5 kts 95°
2026-04-23 14:51 35.33925 25.17336 86 ft 11 kts 95°
2026-04-23 14:52 35.33918 25.17432 86 ft 11 kts 94°
2026-04-23 14:52 35.33885 25.17505 90 ft 11 kts 175°
2026-04-23 14:52 35.33813 25.17496 87 ft 9 kts 199°
2026-04-23 14:52 35.33807 25.17430 87 ft 5 kts 272°
2026-04-23 14:53 35.33807 25.17424 85 ft 0 kts 272°